Current weather by "City, St" or "zip code"  
 
Advertise Here

Current Conditions: Point Pleasant, Mason County Airport, WV

Fair


52.0 F

Last Updated on May 16 2021, 1:55 am EDT
Humidity: 84%
Wind Speed: N 0.0 mph
Barometer 30.20 in
Dewpoint: 47.3 F
Visibility: 10.00 mi
Precip: --
Heat Index: NA
Wind Chill: NA
Current conditions at:

Point Pleasant, Mason County Airport, WV (K3I2)

Lat: 38.91444 Lon: 82.09833

Local Radar Image active severe weather and emergency alerts image image weather storm and storm spotter reports image weather observation monitoring service image
Local
Radar
Active
Alerts
Storm Reports Obs
Monitoring

Sign-up For Email & Text Message Weather Alert Notification Services


Advertise Here

Observation History for Point Pleasant, Mason County Airport, WV


Time Wind
(mph)
Vis
(mi)
Weather Precip (in) Temperature (F) Relative
Humidity
Wind
Chill
(F)
Heat
Index
(F)
Pressure
Air Dwpt altimeter
(in)
sea level
(mb)
Rmks
1:55 am EDT N 0.0 10.00 Fair -- 52.0 47.3 84% NA NA 30.20 M
12:55 am EDT N 0.0 10.00 Fair -- 52.0 45.9 79% NA NA 30.20 M
11:55 pm EDT N 0.0 10.00 Fair -- 52.0 45.0 78% NA NA 30.21 M
10:55 pm EDT N 0.0 10.00 Fair -- 52.0 43.7 73% NA NA 30.22 M
9:55 pm EDT N 0.0 10.00 Fair -- 54.0 40.3 60% NA NA 30.22 M
8:55 pm EDT N 0.0 10.00 Fair -- 57.0 41.5 56% NA NA 30.22 M
7:55 pm EDT N 0.0 10.00 Fair -- 65.0 43.2 45% NA NA 30.21 M
6:55 pm EDT N 0.0 10.00 Fair -- 71.0 35.2 27% NA NA 30.22 M
5:55 pm EDT S 5.8 10.00 Fair -- 74.0 36.1 26% NA NA 30.22 M
4:55 pm EDT W 4.6 10.00 Fair -- 74.0 34.5 24% NA NA 30.23 M
3:55 pm EDT N 0.0 10.00 Fair -- 73.0 33.1 24% NA NA 30.25 M
2:55 pm EDT SE 3.5 7.00 Fair -- 74.0 35.8 25% NA NA 30.27 M
12:55 pm EDT N 0.0 10.00 Fair -- 72.0 29.3 21% NA NA 30.32 M
11:55 am EDT E 3.5 10.00 Fair -- 71.0 32.7 25% NA NA 30.33 M
10:55 am EDT N 0.0 10.00 Fair -- 68.0 43.9 42% NA NA 30.35 M
9:55 am EDT N 0.0 10.00 Fair -- 60.0 45.3 58% NA NA 30.36 M
8:55 am EDT N 0.0 10.00 Fair -- 51.0 44.8 80% NA NA 30.36 M
7:55 am EDT N 0.0 2.00 Fog/Mist -- 42.0 41.9 100% NA NA 30.35 M
6:55 am EDT N 0.0 10.00 Fair -- 37.0 36.7 100% NA NA 30.33 M
5:55 am EDT N 0.0 10.00 Fair -- 37.0 36.5 100% NA NA 30.31 M
4:55 am EDT N 0.0 10.00 Fair -- 37.0 37.4 100% NA NA 30.30 M
3:55 am EDT N 0.0 10.00 Fair -- 38.0 38.3 100% NA NA 30.29 M
2:55 am EDT N 0.0 10.00 Fair -- 39.0 39.2 100% NA NA 30.29 M
1:55 am EDT N 0.0 10.00 Fair -- 40.0 40.1 100% NA NA 30.30 M

Regional Weather Observation


Point Pleasant, Mason County Airport, WV (K3I2)

Fair
52.0 F

James A Rhodes Airport, OH (KI43)

Mostly Cloudy
52.0 F

Greater Portsmouth Regional Airport, OH (KPMH)

Overcast
52.0 F

Lancaster, Fairfield County Airport, OH (KLHQ)

Overcast
54.0 F

Ashland Regional Airport, KY (KDWU)

Overcast
53.0 F

Rickenbacker Air National Guard Base, OH (KLCK)

Overcast
57.0 F
Advertise Here

Advertise Here